Location: Roland
(31.1349°N, 85.4372°W)
Time: 19:11:18
(UTC+00:00)

SR - Pass Details

Date: 21 April 2021
Orbit: 573 x 882 km, 66.7° (Epoch: 13 May)

Event Time Altitude Azimuth Distance (km) Brightness Sun altitude
Rises 21:03:46 0° 347° (NNW) 3,438 ? 39.6°
Reaches altitude 10° 21:06:44 10° 360° (N) 2,465 ? 39.0°
Maximum altitude 21:11:24 26° 55° (NE) 1,559 ? 38.0°
Drops below altitude 10° 21:15:48 10° 111° (ESE) 2,306 ? 37.0°
Sets 21:18:28 0° 124° (SE) 3,173 ? 36.5°
